Location: Boitzum
(52.1496°N, 9.6943°E)
Time: 00:28:31
(UTC+00:00)

Okean 1-7 - Pass Details

Date: 13 January 2026
Orbit: 566 x 588 km, 82.5° (Epoch: 17 February)

Event Time Altitude Azimuth Distance (km) Brightness Sun altitude
Exits shadow 06:05:26 - 348° (NNW) 2,756 6.1 -11.6°
Reaches altitude 10° 06:07:34 10° 346° (NNW) 1,881 5.2 -11.3°
Maximum altitude 06:11:42 75° 263° (W) 597 2.8 -10.7°
Drops below altitude 10° 06:15:49 10° 177° (S) 1,875 5.9 -10.1°
Sets 06:18:00 0° 176° (S) 2,772 6.8 -9.8°
